TVF45NJ DAAG-LFML

Flight info

Callsign TVF45NJ
Flight time 1h 9m
Altitude 34000
Route PECES N853 LUMAS/N0461F300 UM976 SOSUR
Aircraft B738/M-SDE2E3FGHIRWXY/LB1

Departure

Time 2026-05-08 21:11
Airport Houari Boumediene Airport (DAAG)

Arrival

Time 2026-05-08 22:20
Airport Marseille Provence Airport (LFML)
Time Latitude Longitude Altitude Speed Heading
2026-05-08 21:02 36.69599 3.20562 61 ft 4 kts 265°
2026-05-08 21:02 36.69601 3.20590 61 ft 1 kts 272°
2026-05-08 21:03 36.69601 3.20591 61 ft 0 kts 272°
2026-05-08 21:04 36.69602 3.20528 62 ft 18 kts 272°
2026-05-08 21:04 36.69579 3.20373 67 ft 14 kts 201°
2026-05-08 21:05 36.69481 3.20357 66 ft 14 kts 209°
2026-05-08 21:05 36.69401 3.20294 62 ft 13 kts 192°
2026-05-08 21:05 36.69314 3.20269 66 ft 13 kts 227°
2026-05-08 21:05 36.69301 3.20163 70 ft 13 kts 272°
2026-05-08 21:06 36.69304 3.20054 69 ft 12 kts 272°
2026-05-08 21:06 36.69306 3.19947 67 ft 13 kts 271°
2026-05-08 21:06 36.69309 3.19814 66 ft 17 kts 271°
2026-05-08 21:06 36.69313 3.19656 69 ft 18 kts 272°
2026-05-08 21:07 36.69317 3.19499 67 ft 18 kts 272°
2026-05-08 21:07 36.69322 3.19325 68 ft 23 kts 272°
2026-05-08 21:07 36.69326 3.19106 70 ft 28 kts 271°
2026-05-08 21:07 36.69332 3.18843 70 ft 32 kts 271°
2026-05-08 21:08 36.69338 3.18570 70 ft 31 kts 271°
2026-05-08 21:08 36.69345 3.18307 70 ft 29 kts 272°
2026-05-08 21:08 36.69351 3.18061 70 ft 28 kts 272°
2026-05-08 21:08 36.69357 3.17829 70 ft 26 kts 272°
2026-05-08 21:09 36.69362 3.17612 66 ft 24 kts 272°
2026-05-08 21:09 36.69367 3.17410 70 ft 23 kts 271°
2026-05-08 21:09 36.69371 3.17230 70 ft 17 kts 270°
2026-05-08 21:09 36.69334 3.17107 72 ft 16 kts 205°
2026-05-08 21:10 36.69226 3.17103 84 ft 15 kts 155°
2026-05-08 21:10 36.69201 3.17256 79 ft 36 kts 91°
2026-05-08 21:10 36.69186 3.17883 74 ft 106 kts 91°
2026-05-08 21:10 36.69161 3.19042 112 ft 157 kts 90°
2026-05-08 21:11 36.69148 3.20416 823 ft 151 kts 90°
2026-05-08 21:11 36.69134 3.21731 1456 ft 161 kts 82°
2026-05-08 21:11 36.69483 3.23092 1998 ft 175 kts 61°
2026-05-08 21:11 36.70333 3.24360 2258 ft 207 kts 39°
2026-05-08 21:12 36.71689 3.25212 2495 ft 229 kts 19°
2026-05-08 21:12 36.73256 3.25763 2803 ft 247 kts 17°
2026-05-08 21:12 36.74978 3.26365 3187 ft 263 kts 17°
2026-05-08 21:12 36.76772 3.27004 3877 ft 270 kts 17°
2026-05-08 21:13 36.78598 3.27667 4597 ft 276 kts 17°
2026-05-08 21:13 36.80465 3.28356 5312 ft 282 kts 17°
2026-05-08 21:13 36.82355 3.29065 6111 ft 284 kts 16°
2026-05-08 21:13 36.84237 3.29779 6831 ft 288 kts 16°
2026-05-08 21:14 36.86179 3.30521 7466 ft 295 kts 15°
2026-05-08 21:14 36.88166 3.31285 8135 ft 301 kts 15°
2026-05-08 21:14 36.90194 3.32068 8816 ft 307 kts 15°
2026-05-08 21:14 36.92260 3.32869 9496 ft 312 kts 15°
2026-05-08 21:15 36.94330 3.33674 10137 ft 318 kts 15°
2026-05-08 21:15 36.96507 3.34520 10422 ft 339 kts 15°
2026-05-08 21:15 36.98836 3.35424 10602 ft 361 kts 15°
2026-05-08 21:15 37.01308 3.36387 10755 ft 382 kts 15°
2026-05-08 21:16 37.03905 3.37402 11035 ft 396 kts 15°
2026-05-08 21:16 37.06525 3.38429 11567 ft 401 kts 15°
2026-05-08 21:16 37.09198 3.39480 12221 ft 404 kts 15°
2026-05-08 21:16 37.11890 3.40539 12866 ft 407 kts 15°
2026-05-08 21:17 37.14603 3.41605 13494 ft 411 kts 15°
2026-05-08 21:17 37.17347 3.42684 14076 ft 415 kts 15°
2026-05-08 21:17 37.20113 3.43773 14752 ft 416 kts 14°
2026-05-08 21:17 37.22868 3.44858 15476 ft 416 kts 14°
2026-05-08 21:18 37.25645 3.45952 16097 ft 419 kts 14°
2026-05-08 21:18 37.28400 3.47037 16690 ft 422 kts 14°
2026-05-08 21:18 37.31215 3.48146 17303 ft 425 kts 14°
2026-05-08 21:18 37.34048 3.49264 17902 ft 428 kts 14°
2026-05-08 21:19 37.36903 3.50392 18463 ft 431 kts 14°
2026-05-08 21:19 37.39785 3.51531 18925 ft 435 kts 14°
2026-05-08 21:19 37.42685 3.52677 19397 ft 439 kts 13°
2026-05-08 21:19 37.45613 3.53837 19882 ft 442 kts 13°
2026-05-08 21:20 37.48518 3.54988 20351 ft 446 kts 13°
2026-05-08 21:20 37.51491 3.56166 20809 ft 449 kts 13°
2026-05-08 21:20 37.54490 3.57357 21266 ft 453 kts 13°
2026-05-08 21:20 37.57521 3.58561 21703 ft 457 kts 13°
2026-05-08 21:21 37.60535 3.59759 22123 ft 460 kts 13°
2026-05-08 21:21 37.63613 3.60984 22547 ft 464 kts 13°
2026-05-08 21:21 37.66706 3.62216 22970 ft 467 kts 13°
2026-05-08 21:21 37.69831 3.63462 23390 ft 471 kts 13°
2026-05-08 21:22 37.72962 3.64712 23749 ft 474 kts 13°
2026-05-08 21:22 37.76118 3.65972 24097 ft 477 kts 13°
2026-05-08 21:22 37.79250 3.67224 24453 ft 479 kts 13°
2026-05-08 21:22 37.82436 3.68500 24806 ft 481 kts 12°
2026-05-08 21:23 37.85640 3.69783 25146 ft 483 kts 12°
2026-05-08 21:23 37.88860 3.71074 25470 ft 486 kts 12°
2026-05-08 21:23 37.92103 3.72374 25816 ft 488 kts 12°
2026-05-08 21:23 37.95350 3.73678 26129 ft 491 kts 12°
2026-05-08 21:24 37.98581 3.74977 26438 ft 493 kts 12°
2026-05-08 21:24 38.01861 3.76297 26745 ft 495 kts 12°
2026-05-08 21:24 38.05158 3.77625 27043 ft 497 kts 12°
2026-05-08 21:24 38.08463 3.78957 27332 ft 499 kts 12°
2026-05-08 21:25 38.11787 3.80298 27613 ft 502 kts 11°
2026-05-08 21:25 38.15122 3.81646 27963 ft 502 kts 11°
2026-05-08 21:25 38.18411 3.82977 28316 ft 502 kts 11°
2026-05-08 21:25 38.21742 3.84326 28658 ft 503 kts 11°
2026-05-08 21:26 38.25089 3.85682 29056 ft 502 kts 11°
2026-05-08 21:26 38.28422 3.87035 29481 ft 501 kts 11°
2026-05-08 21:26 38.31735 3.88380 29922 ft 499 kts 10°
2026-05-08 21:26 38.35047 3.89726 30277 ft 499 kts 10°
2026-05-08 21:27 38.38359 3.91072 30571 ft 499 kts 10°
2026-05-08 21:27 38.41672 3.92419 30864 ft 500 kts 10°
2026-05-08 21:27 38.44944 3.93752 31165 ft 499 kts 10°
2026-05-08 21:27 38.48266 3.95062 31478 ft 496 kts
2026-05-08 21:28 38.51621 3.95930 31745 ft 489 kts
2026-05-08 21:28 38.54987 3.96557 32041 ft 487 kts 359°
2026-05-08 21:28 38.58354 3.97122 32348 ft 486 kts 359°
2026-05-08 21:28 38.61712 3.97684 32721 ft 486 kts 358°
2026-05-08 21:29 38.65025 3.98259 33029 ft 485 kts 359°
2026-05-08 21:29 38.68378 3.98865 33317 ft 486 kts 359°
2026-05-08 21:29 38.71734 3.99491 33622 ft 486 kts 359°
2026-05-08 21:29 38.75082 4.00127 33917 ft 486 kts 359°
2026-05-08 21:30 38.78404 4.00762 34028 ft 489 kts 359°
2026-05-08 21:30 38.85158 4.02054 34043 ft 491 kts 359°
2026-05-08 21:31 38.91860 4.03346 34022 ft 485 kts 359°
2026-05-08 21:31 38.98528 4.04625 34031 ft 483 kts 359°
2026-05-08 21:32 39.05192 4.05901 34027 ft 483 kts 359°
2026-05-08 21:32 39.11806 4.07172 34033 ft 483 kts 358°
2026-05-08 21:33 39.18475 4.08457 34031 ft 484 kts 358°
2026-05-08 21:33 39.25134 4.09742 34033 ft 484 kts 358°
2026-05-08 21:34 39.31770 4.11019 34035 ft 485 kts 358°
2026-05-08 21:34 39.38467 4.12311 34036 ft 485 kts 358°
2026-05-08 21:35 39.45119 4.13599 34031 ft 485 kts 358°
2026-05-08 21:35 39.51812 4.14897 34076 ft 485 kts 358°
2026-05-08 21:36 39.57366 4.15972 34051 ft 484 kts
2026-05-08 21:36 39.64016 4.17269 34055 ft 481 kts 358°
2026-05-08 21:37 39.70642 4.18549 34067 ft 481 kts 358°
2026-05-08 21:37 39.77233 4.19822 34081 ft 480 kts 357°
2026-05-08 21:38 39.83844 4.21103 34069 ft 479 kts 358°
2026-05-08 21:38 39.90452 4.22469 34074 ft 481 kts 359°
2026-05-08 21:39 39.97004 4.24040 34113 ft 482 kts 359°
2026-05-08 21:39 40.03601 4.25643 34074 ft 482 kts 359°
2026-05-08 21:40 40.10207 4.27221 34044 ft 481 kts 359°
2026-05-08 21:40 40.16752 4.28772 34048 ft 480 kts 359°
2026-05-08 21:41 40.26631 4.31117 34047 ft 480 kts 359°
2026-05-08 21:41 40.33160 4.32672 34052 ft 479 kts 359°
2026-05-08 21:42 40.39734 4.34242 34091 ft 479 kts 359°
2026-05-08 21:42 40.46299 4.35813 34056 ft 479 kts 359°
2026-05-08 21:43 40.52828 4.37374 34049 ft 478 kts 359°
2026-05-08 21:43 40.59379 4.38926 34057 ft 477 kts 359°
2026-05-08 21:44 40.65911 4.40473 34053 ft 476 kts 359°
2026-05-08 21:44 40.72397 4.42015 34050 ft 476 kts 359°
2026-05-08 21:45 40.78920 4.43570 34052 ft 476 kts 359°
2026-05-08 21:45 40.85457 4.45132 34061 ft 476 kts 359°
2026-05-08 21:46 40.91990 4.46700 34061 ft 477 kts 359°
2026-05-08 21:46 40.98475 4.48286 34060 ft 477 kts 359°
2026-05-08 21:47 41.05008 4.49889 34092 ft 477 kts 359°
2026-05-08 21:47 41.11557 4.51491 34070 ft 477 kts 359°
2026-05-08 21:48 41.18056 4.53076 34057 ft 477 kts 359°
2026-05-08 21:48 41.24592 4.54674 34057 ft 477 kts 359°
2026-05-08 21:49 41.31129 4.56277 34064 ft 477 kts 359°
2026-05-08 21:49 41.37665 4.57885 34068 ft 476 kts 358°
2026-05-08 21:50 41.44138 4.59480 34061 ft 475 kts 358°
2026-05-08 21:50 41.50643 4.61085 34073 ft 474 kts 358°
2026-05-08 21:51 41.57089 4.62678 34064 ft 472 kts 358°
2026-05-08 21:51 41.63549 4.64278 34065 ft 471 kts 358°
2026-05-08 21:52 41.70003 4.65880 34084 ft 470 kts 358°
2026-05-08 21:52 41.76404 4.67712 34063 ft 478 kts
2026-05-08 21:53 41.82813 4.70268 34005 ft 482 kts
2026-05-08 21:53 41.86049 4.71612 33356 ft 487 kts
2026-05-08 21:53 41.89283 4.72949 32729 ft 483 kts
2026-05-08 21:54 41.92501 4.74263 32016 ft 483 kts
2026-05-08 21:54 41.95716 4.75556 31289 ft 482 kts
2026-05-08 21:54 41.98931 4.76837 30564 ft 482 kts
2026-05-08 21:54 42.02116 4.78100 29743 ft 482 kts 10°
2026-05-08 21:55 42.05339 4.79379 28856 ft 482 kts 10°
2026-05-08 21:55 42.08557 4.80659 28182 ft 478 kts 10°
2026-05-08 21:55 42.11727 4.81924 27595 ft 472 kts 11°
2026-05-08 21:56 42.17939 4.84406 26418 ft 462 kts 11°
2026-05-08 21:56 42.21012 4.85635 25846 ft 457 kts 11°
2026-05-08 21:56 42.24055 4.86852 25283 ft 453 kts 11°
2026-05-08 21:56 42.27065 4.88057 24733 ft 449 kts 11°
2026-05-08 21:57 42.30013 4.89237 24187 ft 445 kts 11°
2026-05-08 21:57 42.32981 4.90427 23618 ft 443 kts 11°
2026-05-08 21:57 42.35932 4.91611 22963 ft 440 kts 11°
2026-05-08 21:57 42.38860 4.92788 22375 ft 435 kts 11°
2026-05-08 21:58 42.41746 4.93950 21827 ft 430 kts 11°
2026-05-08 21:58 42.44609 4.95103 21268 ft 426 kts 12°
2026-05-08 21:58 42.47409 4.96231 20719 ft 422 kts 12°
2026-05-08 21:58 42.50214 4.97362 20183 ft 418 kts 12°
2026-05-08 21:59 42.52995 4.98485 19661 ft 415 kts 12°
2026-05-08 21:59 42.55751 4.99597 19103 ft 412 kts 12°
2026-05-08 21:59 42.58509 5.00588 18765 ft 404 kts
2026-05-08 21:59 42.61228 5.01451 18431 ft 403 kts
2026-05-08 22:00 42.63960 5.02280 18063 ft 409 kts
2026-05-08 22:00 42.66753 5.03126 17683 ft 411 kts
2026-05-08 22:00 42.69535 5.03982 17315 ft 408 kts
2026-05-08 22:00 42.72299 5.04845 16962 ft 406 kts
2026-05-08 22:01 42.75042 5.05710 16614 ft 403 kts 10°
2026-05-08 22:01 42.77775 5.06576 16283 ft 402 kts 10°
2026-05-08 22:01 42.80493 5.07438 15946 ft 400 kts 10°
2026-05-08 22:01 42.83204 5.08300 15611 ft 399 kts 11°
2026-05-08 22:02 42.85909 5.09160 15277 ft 399 kts 11°
2026-05-08 22:02 42.88610 5.10018 14943 ft 398 kts 11°
2026-05-08 22:02 42.91277 5.10868 14627 ft 397 kts 11°
2026-05-08 22:02 42.93970 5.11706 14286 ft 396 kts
2026-05-08 22:03 42.96709 5.11932 13950 ft 392 kts 355°
2026-05-08 22:03 42.99426 5.11713 13597 ft 390 kts 354°
2026-05-08 22:03 43.02137 5.11447 13234 ft 388 kts 354°
2026-05-08 22:03 43.04828 5.11190 12893 ft 385 kts 354°
2026-05-08 22:04 43.07461 5.10959 12564 ft 383 kts 355°
2026-05-08 22:04 43.10120 5.10745 12241 ft 380 kts 355°
2026-05-08 22:04 43.12759 5.10545 11931 ft 376 kts 355°
2026-05-08 22:04 43.15349 5.10356 11605 ft 367 kts 356°
2026-05-08 22:05 43.17879 5.10175 11303 ft 359 kts 356°
2026-05-08 22:05 43.20321 5.10000 11009 ft 352 kts 356°
2026-05-08 22:05 43.22750 5.09827 10718 ft 345 kts 356°
2026-05-08 22:05 43.25129 5.09656 10436 ft 339 kts 356°
2026-05-08 22:06 43.27464 5.09488 10163 ft 333 kts 356°
2026-05-08 22:06 43.29751 5.09324 10044 ft 321 kts 356°
2026-05-08 22:06 43.31913 5.09169 10024 ft 308 kts 356°
2026-05-08 22:06 43.34079 5.09012 9427 ft 311 kts 356°
2026-05-08 22:07 43.36217 5.08858 9084 ft 301 kts 356°
2026-05-08 22:07 43.38271 5.08712 8814 ft 290 kts 357°
2026-05-08 22:07 43.40222 5.08847 8551 ft 279 kts
2026-05-08 22:07 43.42107 5.09268 8319 ft 269 kts 10°
2026-05-08 22:08 43.43912 5.09714 8092 ft 259 kts 10°
2026-05-08 22:08 43.45660 5.10139 7875 ft 250 kts 10°
2026-05-08 22:08 43.47351 5.10536 7666 ft 242 kts
2026-05-08 22:08 43.48979 5.10908 7463 ft 233 kts
2026-05-08 22:09 43.50561 5.11265 7274 ft 227 kts
2026-05-08 22:09 43.52117 5.11611 7106 ft 230 kts
2026-05-08 22:09 43.53710 5.11962 6927 ft 233 kts
2026-05-08 22:09 43.55317 5.12315 6730 ft 235 kts
2026-05-08 22:10 43.56932 5.12668 6511 ft 233 kts
2026-05-08 22:10 43.58532 5.13018 6301 ft 231 kts 10°
2026-05-08 22:10 43.60096 5.13361 6071 ft 228 kts 10°
2026-05-08 22:10 43.61653 5.13351 5901 ft 222 kts 341°
2026-05-08 22:11 43.62991 5.12457 5873 ft 208 kts 329°
2026-05-08 22:11 43.64216 5.11463 5798 ft 202 kts 329°
2026-05-08 22:11 43.65425 5.10468 5740 ft 202 kts 328°
2026-05-08 22:11 43.66652 5.09451 5612 ft 206 kts 328°
2026-05-08 22:12 43.67875 5.08433 5554 ft 204 kts 328°
2026-05-08 22:12 43.68949 5.07198 5505 ft 200 kts 300°
2026-05-08 22:12 43.69290 5.05400 5511 ft 197 kts 261°
2026-05-08 22:12 43.68804 5.03675 5449 ft 196 kts 234°
2026-05-08 22:13 43.67993 5.02162 5312 ft 195 kts 224°
2026-05-08 22:13 43.67048 5.00809 5163 ft 195 kts 223°
2026-05-08 22:13 43.66092 4.99469 5012 ft 196 kts 223°
2026-05-08 22:13 43.65132 4.98128 4861 ft 196 kts 223°
2026-05-08 22:14 43.64175 4.96791 4704 ft 196 kts 223°
2026-05-08 22:14 43.63135 4.95649 4551 ft 191 kts 199°
2026-05-08 22:14 43.61881 4.95712 4445 ft 182 kts 150°
2026-05-08 22:14 43.60969 4.96869 4377 ft 177 kts 134°
2026-05-08 22:15 43.60093 4.98109 4304 ft 185 kts 135°
2026-05-08 22:15 43.59195 4.99374 4053 ft 181 kts 135°
2026-05-08 22:15 43.58328 5.00604 3818 ft 176 kts 135°
2026-05-08 22:15 43.57492 5.01795 3585 ft 170 kts 135°
2026-05-08 22:16 43.56682 5.02948 3368 ft 165 kts 135°
2026-05-08 22:16 43.55907 5.04051 3160 ft 160 kts 135°
2026-05-08 22:16 43.55133 5.05154 2955 ft 160 kts 135°
2026-05-08 22:16 43.54357 5.06260 2736 ft 161 kts 135°
2026-05-08 22:17 43.53581 5.07365 2521 ft 160 kts 135°
2026-05-08 22:17 43.52804 5.08473 2314 ft 161 kts 135°
2026-05-08 22:17 43.52052 5.09546 2145 ft 152 kts 135°
2026-05-08 22:17 43.51318 5.10592 1918 ft 150 kts 135°
2026-05-08 22:18 43.50597 5.11620 1712 ft 148 kts 134°
2026-05-08 22:18 43.49892 5.12625 1518 ft 148 kts 134°
2026-05-08 22:18 43.49176 5.13647 1321 ft 149 kts 134°
2026-05-08 22:18 43.48459 5.14670 1123 ft 148 kts 134°
2026-05-08 22:19 43.47742 5.15693 919 ft 148 kts 134°
2026-05-08 22:19 43.47028 5.16712 718 ft 148 kts 134°
2026-05-08 22:19 43.46318 5.17725 517 ft 146 kts 134°
2026-05-08 22:19 43.45615 5.18731 316 ft 145 kts 133°
2026-05-08 22:20 43.44917 5.19728 96 ft 145 kts 133°
2026-05-08 22:20 43.44244 5.20688 34 ft 123 kts 134°
2026-05-08 22:20 43.43799 5.21325 37 ft 61 kts 134°
2026-05-08 22:20 43.43561 5.21663 34 ft 46 kts 134°
2026-05-08 22:21 43.43393 5.21900 34 ft 29 kts 134°
2026-05-08 22:21 43.43325 5.22124 36 ft 22 kts 84°
2026-05-08 22:21 43.43393 5.22299 36 ft 10 kts 28°
2026-05-08 22:21 43.43444 5.22268 36 ft 10 kts 328°
2026-05-08 22:22 43.43536 5.22193 36 ft 19 kts 330°
2026-05-08 22:22 43.43648 5.22104 36 ft 18 kts 330°
2026-05-08 22:22 43.43756 5.22017 36 ft 18 kts 326°
2026-05-08 22:22 43.43843 5.21899 36 ft 17 kts 314°
2026-05-08 22:23 43.43942 5.21912 36 ft 17 kts 42°
2026-05-08 22:23 43.43995 5.22020 36 ft 13 kts 85°
2026-05-08 22:23 43.44021 5.22108 34 ft 2 kts 62°
2026-05-08 22:23 43.44023 5.22112 35 ft 0 kts 62°